| time (UTC) | temp F | wind direction | speed MPH | gust MPH | rain 1hr in | rain 24hr in | rain mn in | humidity % | barometer mb |
| 20260504224528 | 68 | 193 | 0.0 | 6.0 | 0.00 | 0.00 | 0.00 | 33 | 1003.3 |
| 20260504223025 | 68 | 167 | 0.0 | 9.0 | 0.00 | 0.00 | 0.00 | 33 | 1003.3 |
| 20260504221529 | 69 | 228 | 1.0 | 9.0 | 0.00 | 0.00 | 0.00 | 32 | 1003.2 |
| 20260504220024 | 69 | 147 | 0.0 | 9.0 | 0.00 | 0.00 | 0.00 | 32 | 1003.2 |
| 20260504214523 | 69 | 297 | 3.0 | 14.0 | 0.00 | 0.00 | 0.00 | 32 | 1003.1 |
| 20260504213044 | 69 | 150 | 0.0 | 11.0 | 0.00 | 0.00 | 0.00 | 33 | 1003.3 |
| 20260504211522 | 69 | 199 | 0.0 | 15.0 | 0.00 | 0.00 | 0.00 | 32 | 1003.3 |
| 20260504210026 | 70 | 164 | 1.0 | 10.0 | 0.00 | 0.00 | 0.00 | 32 | 1003.2 |
| 20260504204523 | 71 | 271 | 1.0 | 9.0 | 0.00 | 0.00 | 0.00 | 31 | 1003.1 |
| 20260504203021 | 71 | 254 | 0.0 | 9.0 | 0.00 | 0.00 | 0.00 | 31 | 1003.1 |
| 20260504201525 | 71 | 211 | 0.0 | 12.0 | 0.00 | 0.00 | 0.00 | 32 | 1003.1 |
| 20260504200019 | 71 | 159 | 1.0 | 14.0 | 0.00 | 0.00 | 0.00 | 31 | 1003.2 |
| 20260504194519 | 70 | 238 | 2.0 | 11.0 | 0.00 | 0.00 | 0.00 | 33 | 1003.3 |
| 20260504193017 | 70 | 215 | 0.0 | 12.0 | 0.00 | 0.00 | 0.00 | 33 | 1003.3 |
| 20260504191518 | 70 | 229 | 3.0 | 13.0 | 0.00 | 0.00 | 0.00 | 36 | 1003.3 |
| 20260504190010 | 69 | 204 | 2.0 | 11.0 | 0.00 | 0.00 | 0.00 | 39 | 1003.3 |
| 20260504184514 | 66 | 218 | 0.0 | 10.0 | 0.00 | 0.00 | 0.00 | 37 | 1003.7 |
| 20260504183018 | 66 | 231 | 0.0 | 6.0 | 0.00 | 0.00 | 0.00 | 38 | 1003.9 |
| 20260504181510 | 66 | 290 | 0.0 | 8.0 | 0.00 | 0.00 | 0.00 | 36 | 1003.7 |
| 20260504180010 | 66 | 220 | 0.0 | 6.0 | 0.00 | 0.00 | 0.00 | 34 | 1003.7 |
| 20260504174617 | 66 | 205 | 0.0 | 6.0 | 0.00 | 0.00 | 0.00 | 34 | 1003.8 |
| 20260504173015 | 67 | 196 | 1.0 | 13.0 | 0.00 | 0.00 | 0.00 | 32 | 1003.9 |
| 20260504171510 | 68 | 315 | 3.0 | 16.0 | 0.00 | 0.00 | 0.00 | 33 | 1003.7 |
| 20260504110117 | 45 | 219 | 0.0 | 0.0 | 0.00 | 0.00 | 0.00 | 71 | 1007.0 |
| 20260504081529 | 40 | 236 | 0.0 | 0.0 | 0.00 | 0.00 | 0.00 | 74 | 1007.0 |
| 20260504050009 | 35 | 220 | 0.0 | 0.0 | 0.00 | 0.00 | 0.00 | 82 | 1006.9 |
| 20260504044521 | 35 | 220 | 0.0 | 0.0 | 0.00 | 0.00 | 0.00 | 82 | 1006.9 |
| 20260504043006 | 35 | 220 | 0.0 | 0.0 | 0.00 | 0.00 | 0.00 | 82 | 1006.8 |
| 20260504041502 | 34 | 220 | 0.0 | 0.0 | 0.00 | 0.00 | 0.00 | 84 | 1006.6 |
| 20260504040107 | 35 | 209 | 0.0 | 0.0 | 0.00 | 0.00 | 0.00 | 83 | 1006.6 |
| 20260504040001 | 35 | 209 | 0.0 | 0.0 | 0.00 | 0.00 | 0.00 | 83 | 1006.6 |
| 20260504034603 | 35 | 209 | 0.0 | 0.0 | 0.00 | 0.00 | 0.00 | 81 | 1006.4 |
| 20260504033113 | 35 | 207 | 0.0 | 2.0 | 0.00 | 0.00 | 0.00 | 81 | 1006.4 |
| 20260504031554 | 36 | 302 | 0.0 | 1.0 | 0.00 | 0.00 | 0.00 | 81 | 1006.2 |
| 20260504030054 | 36 | 303 | 0.0 | 0.0 | 0.00 | 0.00 | 0.00 | 81 | 1006.3 |
| 20260504024557 | 36 | 303 | 0.0 | 0.0 | 0.00 | 0.00 | 0.00 | 79 | 1006.3 |
| 20260504023054 | 36 | 303 | 0.0 | 0.0 | 0.00 | 0.00 | 0.00 | 81 | 1006.2 |
| 20260504021551 | 36 | 307 | 0.0 | 2.0 | 0.00 | 0.00 | 0.00 | 81 | 1006.2 |
| 20260504020049 | 36 | 308 | 0.0 | 0.0 | 0.00 | 0.00 | 0.00 | 80 | 1006.3 |
| 20260504014549 | 37 | 308 | 0.0 | 2.0 | 0.00 | 0.01 | 0.00 | 79 | 1006.3 |
| 20260504013050 | 37 | 309 | 0.0 | 0.0 | 0.00 | 0.01 | 0.00 | 77 | 1006.2 |
| 20260504011543 | 38 | 309 | 0.0 | 0.0 | 0.00 | 0.01 | 0.00 | 74 | 1006.1 |
| 20260504010048 | 40 | 309 | 0.0 | 0.0 | 0.00 | 0.01 | 0.00 | 70 | 1006.0 |
| 20260504004536 | 41 | 309 | 0.0 | 0.0 | 0.00 | 0.04 | 0.00 | 68 | 1005.6 |
| 20260504003035 | 42 | 309 | 0.0 | 0.0 | 0.00 | 0.04 | 0.00 | 64 | 1005.5 |
| 20260504001537 | 43 | 304 | 0.0 | 0.0 | 0.00 | 0.04 | 0.00 | 60 | 1005.3 |
| 20260504000037 | 44 | 306 | 0.0 | 0.0 | 0.00 | 0.04 | 0.00 | 58 | 1005.0 |
| 20260503234534 | 45 | 284 | 0.0 | 5.0 | 0.00 | 0.05 | 0.00 | 54 | 1004.8 |
| 20260503233032 | 46 | 293 | 0.0 | 2.0 | 0.00 | 0.05 | 0.00 | 51 | 1004.6 |
| 20260503231532 | 47 | 304 | 0.0 | 14.0 | 0.00 | 0.05 | 0.00 | 51 | 1004.5 |
| 20260503230032 | 48 | 236 | 0.0 | 9.0 | 0.00 | 0.05 | 0.00 | 50 | 1004.3 |